Overview Statistics Trail Chart Weather Telemetry Raw packets
 

This is the latest recevied weather packets stored in our database for station/object NO9B. If no packets are shown the sender has not sent any weather packets the latest 10 day(s).

<< 82 83 84 85 86 87 88 >>
Time Temp. Humidity Pressure Rain* Wind** Luminosity Snow
1788101596 25° C 78% 1014.7 hPa 0 mm - 45 W/m² -
1788101291 24.44° C 80% 1014.5 hPa 0 mm - 46 W/m² -
1788100987 24.44° C 81% 1014.4 hPa 0 mm - 43 W/m² -
1788100683 24.44° C 82% 1014.6 hPa 0 mm - 43 W/m² -
1788100382 23.89° C 82% 1014.4 hPa 0 mm - 41 W/m² -
1788100077 23.89° C 84% 1014.5 hPa 0 mm - 39 W/m² -
1788099772 23.33° C 85% 1014.7 hPa 0 mm - 37 W/m² -
1788099475 23.33° C 87% 1014.7 hPa 0 mm - 35 W/m² -
1788099163 23.33° C 87% 1014.6 hPa 0 mm - 34 W/m² -
1788098863 22.78° C 87% 1014.7 hPa 0 mm - 32 W/m² -
1788098557 22.78° C 88% 1014.8 hPa 0 mm - 32 W/m² -
1788098252 22.22° C 90% 1014.8 hPa 0 mm - 31 W/m² -
1788097948 22.22° C 92% 1014.7 hPa 0 mm - 29 W/m² -
1788097643 22.22° C 92% 1014.8 hPa 0 mm - 29 W/m² -
1788097338 21.67° C 93% 1014.8 hPa 0 mm - 28 W/m² -
1788097034 21.67° C 93% 1014.6 hPa 0 mm - 27 W/m² -
1788096730 21.67° C 93% 1014.7 hPa 0 mm - 26 W/m² -
1788096425 21.67° C 94% 1014.8 hPa 0 mm - 22 W/m² -
1788096121 21.67° C 94% 1014.9 hPa 0 mm - 21 W/m² -
1788095820 21.11° C 95% 1014.9 hPa 0 mm - 23 W/m² -
1788095520 21.11° C 95% 1014.7 hPa 0 mm - 25 W/m² -
1788095214 21.11° C 95% 1015 hPa 0 mm - 24 W/m² -
1788094909 21.11° C 95% 1015 hPa 0 mm - 20 W/m² -
1788094609 20.56° C 95% 1015.1 hPa 0 mm - 20 W/m² -
1788094304 20.56° C 95% 1015.2 hPa 0 mm - 17 W/m² -

* Rain latest hour (hover to see other rain measurements)
** Current wind speed in m/s (hover to see current wind gust speed)